EHI
0 0 0 0 0 0 0 0 0 0 0 0 0 0 0 0 0 0 0 0 0 0 0 0 0 0 0 0 0 0 0 0 0 0 0 0 0 0 0 0 0 0 0
0 0 0 0 0 0 0 0 0 0 0 0 0 0 0 0 0 0 0 0 0 0 0 0 0 0 0 0 0 0 0 0 0 0 0 0 0 0 0 0 0 0 0
0 0 0 0 0 0 0 0 0 0 0 0 0 0 0 0 0 0 0 0 0 0 0 0 0 0 0 0 0 0 0 0 0 0 0 0 0 0 0 0 0 0 0
0 0 0 0 0 0 0 0 0 0 0 0 0 0 0 0 0 0 0 0 0 0 0 0 0 0 0 0 0 0 0 0 0 0 0 0 0 0 0 0 0 0 0
0 0 0 0 0 0 0 0 0 0 0 0 0 0 0 0 0 0 0 0 0 0 0 0 0 0 0 0 0 0 0 0 0 0 0 0 0 0 0 0 0 0 0
0 0 0 0 0 0 0 0 0 0 0 0 0 0 0 0 0 0 0 0 0 0 0 0 0 0 0 0 0 0 0 0 0 0 0 0 0 0 0 0 0 0 0
0 0 0 0 0 0 0 0 0 0 0 0 0 0 0 0 0 0 0 0 0 0 0 0 0 0 0 0 0 0 0 0 0 0 0 0 0 0 0 0 0 0 0
0 0 0 0 0 0 0 0 0 0 0 0 0 0 0 0 0 0 0 0 0 0 0 0 0 0 0 0 0 0 0 0 0 0 0 0 0 0 0 0 0 0 0
0 0 0 0 0 0 0 0 0 0 0 0 0 0 0 0 0 0 0 0 0 0 0 0 0 0 0 0 0 0 0 0 0 0 0 0 0 0 0 0 0 0 0
0 0 0 0 0 0 0 0 0 0 0 0 0 0 0 0 0 0 0 0 0 0 0 0 0 0 0 0 0 0 0 0 0 0 0 0 0 0 0 0 0 0 0
0 0 0 0 0 0 0 0 0 0 0 0 0 0 0 0 0 0 0 0 0 0 0 0 0 0 0 0 0 0 0 0 0 0 0 0 0 0 0 0 0 0 0
0 0 0 0 0 0 0 0 0 0 0 0 0 0 0 0 0 0 0 0 0 0 0 0 0 0 0 0 0 0 0 0 0 0 0 0 0 0 0 0 0 0 0
0 0 0 0 0 0 0 0 0 0 0 0 0 0 0 0 0 0 0 0 0 0 0 0 0 0 0 0 0 0 0 0 0 0 0 0 0 0 0 0 0 0 0
0 0 0 0 0 0 0 0 0 0 0 0 0 0 0 0 0 0 0 0 0 0 0 0 0 0 0 0 0 0 0 0 0 0 0 0 0 0 0 0 0 0 0
0 0 0 0 0 0 0 0 0 0 0 0 0 0 0 0 0 0 0 0 0 0 0 0 0 0 0 0 0 0 0 0 0 0 0 0 0 0 0 0 0 0 0
0 0 0 0 0 0 0 0 0 0 0 0 0 0 0 0 0 0 0 0 0 0 0 0 0 0 0 0 0 0 0 0 0 0 0 0 0 0 0 0 0 0 0
0 0 0 0 0 0 0 0 0 0 0 0 0 0 0 0 0 0 0 0 0 0 0 0 0 0 0 0 0 0 0 0 0 0 0 0 0 0 0 0 0 0 0
0 0 0 0 0 0 0 0 0 0 0 0 0 0 0 0 0 0 0 0 0 0 0 0 0 0 0 0 0 0 0 0 0 0 0 0 0 0 0 0 0 0 0
0 0 0 0 0 0 0 0 0 0 0 0 0 0 0 0 0 0 0 0 0 0 0 0 0 0 0 0 0 0 0 0 0 0 0 0 0 0 0 0 0 0 0
0 0 0 0 0 0 0 0 0 0 0 0 0 0 0 0 0 0 0 0 0 0 0 0 0 0 0 0 0 0 0 0 0 0 0 0 0 0 0 0 0 0 0
0 0 0 0 0 0 0 0 0 0 0 0 0 0 0 0 0 0 0 0 0 0 0 0 0 0 0 0 0 0 0 0 0 0 0 0 0 0 0 0 0 0 0
0 0 0 0 0 0 0 0 0 0 0 0 0 0 0 0 0 0 0 0 0 0 0 0 0 0 0 0 0 0 0 0 0 0 0 0 0 0 0 0 0 0 0
0 0 0 0 0 0 0 0 0 0 0 0 0 0 0 0 0 0 0 0 0 0 0 0 0 0 0 0 0 0 0 0 0 0 0 0 0 0 0 0 0 0 0
0 0 0 0 0 0 0 0 0 0 0 0 0 0 0 0 0 0 0 0 0 0 0 0 0 0 0 0 0 0 0 0 0 0 0 0 0 0 0 0 0 0 0
0 0 0 0 0 0 0 0 0 0 0 0 0 0 0 0 0 0 0 0 0 0 0 0 0 0 0 0 0 0 0 0 0 0 0 0 0 0 0 0 0 0 0
0 0 0 0 0 0 0 0 0 0 0 0 0 0 0 0 0 0 0 0 0 0 0 0 0 0 0 0 0 0 0 0 0 0 0 0 0 0 0 0 0 0 0
Wind_Speed
3 4 4 4 4 4 5 6 6 6 6 7 8 9 10 11 10 10 9 10 11 10 9 9 9 7 6 5 5 4 4 4 5 2 1 2 3 3 2 2 2 2 2
3 4 4 3 3 4 4 5 5 6 6 6 6 8 9 10 11 11 11 10 11 11 10 10 9 7 8 6 5 6 5 5 5 4 2 2 2 2 2 2 1 1 2
3 4 3 3 3 4 5 4 4 5 5 5 6 6 7 8 9 9 10 10 10 10 10 10 10 9 9 6 7 6 5 4 4 3 2 1 1 1 1 1 1 1 1
4 4 3 4 4 4 4 3 4 5 5 5 5 6 6 7 8 9 9 9 8 8 9 9 9 10 10 9 7 7 5 4 4 3 2 2 1 1 2 1 1 1 1
3 3 4 4 4 4 4 2 2 3 4 4 4 5 6 6 7 8 9 8 8 7 7 7 8 9 10 9 7 7 6 5 4 3 3 2 2 2 3 2 2 1 1
3 4 4 4 4 4 3 2 1 2 2 3 4 4 6 5 7 10 9 8 7 8 7 7 7 8 9 10 10 9 9 7 6 5 4 4 4 3 2 2 1 1 2
4 5 5 4 4 4 4 2 1 2 2 2 3 3 4 5 8 9 10 8 7 7 7 7 5 6 8 7 8 8 8 8 8 6 5 5 5 5 4 3 2 2 2
4 5 5 5 4 4 3 2 2 1 1 2 2 3 3 5 7 7 8 7 6 6 6 7 7 7 7 8 7 5 4 4 5 4 4 4 3 4 4 4 3 1 1
5 5 5 5 5 4 4 3 2 2 2 2 2 3 3 5 6 6 6 5 5 6 5 6 7 7 10 11 8 7 5 3 3 5 4 4 5 5 5 4 3 2 1
5 6 5 5 5 4 4 4 3 2 2 2 2 2 3 4 6 7 5 4 4 4 4 5 8 9 11 12 9 8 7 5 4 4 4 4 3 4 4 3 3 2 1
5 5 5 5 5 4 3 3 3 2 2 2 2 2 3 3 5 6 6 4 4 4 4 4 5 9 11 11 9 7 8 7 5 5 4 3 3 2 2 2 1 2 2
4 5 5 5 4 3 3 4 3 2 1 1 1 1 2 3 4 5 6 5 4 4 3 3 4 8 9 10 7 8 10 9 5 4 4 3 2 2 2 2 3 3 1
4 5 5 5 4 3 3 3 3 1 0 1 1 1 1 2 3 4 5 6 5 3 2 4 5 8 8 7 9 11 9 6 5 4 4 3 2 2 2 3 3 3 4
4 4 4 4 4 3 2 2 2 1 1 1 1 1 2 1 2 2 3 3 4 3 3 4 5 6 5 6 7 6 4 4 5 5 4 3 3 3 2 2 1 1 2
4 4 4 4 3 3 3 2 2 1 2 2 2 2 3 3 3 2 2 2 3 3 3 3 3 4 4 3 3 3 4 4 4 4 5 4 3 3 2 2 1 1 1
3 3 3 3 3 2 2 3 2 1 3 4 3 3 2 3 3 3 3 3 3 5 4 4 3 4 4 4 4 3 3 4 4 4 4 4 4 3 3 2 1 1 1
3 3 2 2 2 2 1 1 2 3 4 3 3 2 2 2 3 3 3 4 4 5 3 3 3 4 4 3 3 3 3 3 4 4 5 4 4 3 3 3 2 1 1
2 3 3 2 2 1 1 1 1 1 2 3 3 3 1 1 3 3 4 4 3 2 2 3 3 3 4 4 3 3 4 4 4 4 4 4 4 4 3 3 2 2 1
2 2 2 2 2 1 0 1 1 1 1 2 2 3 2 1 2 3 4 3 3 2 2 2 3 3 4 4 4 4 4 4 4 4 4 4 4 4 3 3 2 3 2
2 3 3 2 1 0 0 1 1 1 1 1 2 2 1 1 1 2 2 2 2 2 2 2 2 3 4 4 4 4 4 4 4 4 4 4 4 4 4 4 3 3 2
1 2 3 2 1 1 0 1 1 0 1 1 2 2 3 1 1 1 1 1 2 2 3 2 2 3 4 4 4 5 5 4 4 4 4 4 4 4 3 4 3 3 3
1 1 1 1 1 1 1 1 1 0 1 1 2 2 3 1 0 1 1 0 1 1 2 2 2 3 4 4 5 5 5 5 4 4 4 4 4 4 4 4 4 3 3
1 1 1 1 1 2 1 1 0 1 1 1 2 2 1 0 1 1 1 1 1 1 1 2 2 2 3 3 3 4 5 5 5 5 5 5 4 4 4 4 5 4 4
1 1 1 1 1 1 1 1 1 1 1 1 2 1 1 0 0 1 1 1 1 1 1 1 2 4 5 4 3 3 4 4 5 5 6 6 5 5 4 5 4 5 4
1 1 1 1 1 1 1 1 1 1 1 1 2 1 0 0 1 1 1 1 2 2 2 1 2 3 6 6 5 4 7 9 7 5 5 5 6 5 5 6 5 5 5
1 1 1 1 1 2 2 1 1 1 2 2 1 1 1 1 1 1 1 2 2 2 2 1 2 4 5 5 6 9 10 10 10 9 5 6 7 6 6 5 6 6 6
Wind_Direction
282 278 273 274 268 248 238 238 229 217 213 217 214 207 205 200 196 196 201 189 193 193 188 193 202 193 192 190 184 188 198 191 221 233 188 183 180 196 202 195 203 208 233
289 285 283 277 279 266 257 252 227 217 213 211 212 211 209 202 196 197 196 189 192 194 191 194 199 192 193 187 186 192 199 197 198 219 209 193 201 196 191 201 214 209 229
299 292 289 287 287 283 271 251 225 212 210 209 208 213 212 203 195 198 190 187 190 193 192 194 196 189 195 191 191 195 198 193 191 193 209 188 192 170 170 212 223 238 247
315 307 305 305 293 288 284 257 230 210 206 210 215 214 211 202 197 192 185 183 188 190 194 196 196 193 194 192 193 195 188 181 178 183 193 190 187 169 158 206 245 242 258
319 319 314 312 309 306 307 276 249 224 216 214 219 217 203 199 194 185 182 182 185 188 192 197 198 194 191 190 187 186 182 183 179 185 195 189 189 180 204 195 217 271 255
318 315 316 322 321 313 311 296 280 245 227 222 213 214 206 202 187 187 186 182 184 186 192 195 194 189 187 187 185 183 182 183 188 190 200 205 210 204 187 181 171 174 256
322 322 325 327 322 317 314 308 298 259 231 226 221 214 214 193 182 182 185 185 186 189 191 189 190 187 182 181 182 183 188 190 188 190 198 208 201 196 177 179 193 202 219
326 326 326 329 323 319 315 302 297 279 222 224 234 231 212 187 174 176 182 188 188 189 192 190 188 185 182 175 172 175 186 193 196 196 197 202 197 184 180 180 173 130 88
324 322 321 324 322 317 313 303 290 290 266 237 240 222 206 185 173 171 172 179 182 185 188 188 184 185 181 171 168 170 167 160 138 141 135 136 142 148 143 126 135 130 205
315 313 315 318 312 308 306 303 302 287 263 247 234 217 204 187 174 167 165 171 175 180 181 188 190 188 180 173 173 172 175 170 142 120 102 93 99 118 125 151 164 158 157
307 313 315 317 311 305 312 313 311 293 275 235 219 222 194 185 173 171 171 171 173 176 182 188 191 183 179 176 178 181 177 158 148 137 124 111 99 91 79 70 83 147 171
315 315 315 316 314 318 327 327 322 301 254 201 206 227 178 175 178 175 177 178 171 173 183 184 182 178 175 174 173 161 150 143 138 135 132 133 128 110 89 75 69 59 66
317 314 313 317 316 321 327 327 325 304 196 227 208 216 188 171 171 175 173 173 170 166 173 180 176 171 162 161 156 152 149 144 143 144 149 151 138 131 116 92 73 71 61
306 311 317 321 325 328 326 316 309 297 278 251 232 219 196 177 164 156 155 153 148 136 133 140 138 140 136 136 141 144 145 148 148 148 142 132 128 125 118 107 98 89 63
306 312 317 322 326 328 326 310 298 278 270 258 241 225 199 196 199 185 164 166 162 157 144 137 133 131 128 128 130 132 133 133 132 134 134 136 136 129 122 107 96 84 79
303 307 307 317 317 317 321 336 323 298 316 310 290 267 258 226 207 199 185 170 158 156 144 151 151 149 150 153 150 144 140 138 140 139 139 144 147 145 134 115 101 109 106
282 292 300 308 309 313 334 358 348 4 11 1 359 333 288 221 185 177 164 152 155 154 150 157 160 157 153 154 157 154 148 143 144 142 142 146 145 142 138 135 126 115 92
285 287 296 298 303 309 331 333 324 339 348 356 3 356 335 190 161 157 148 130 147 152 155 159 161 157 151 149 147 141 137 140 143 141 142 146 148 146 144 142 145 144 127
284 290 294 296 295 292 336 349 345 347 339 334 343 356 17 69 129 149 147 149 167 167 157 153 157 153 147 143 142 140 143 147 147 144 145 149 150 145 142 142 143 138 120
277 287 300 301 303 325 21 2 346 1 343 335 329 327 349 40 139 148 144 151 162 161 157 152 153 149 144 143 142 142 139 142 145 147 149 150 148 146 145 145 146 147 144
279 290 298 307 307 312 353 333 313 309 310 315 310 296 295 268 200 171 162 164 166 160 156 152 154 153 147 144 146 147 145 144 147 149 149 149 144 140 141 140 138 134 127
263 273 276 270 281 296 312 296 292 275 283 301 314 313 322 341 146 152 152 155 139 144 151 153 158 161 157 157 157 153 150 148 150 150 145 142 140 139 138 134 130 125 122
256 269 275 275 281 289 307 314 291 267 276 289 296 302 310 304 152 147 146 126 113 109 121 137 144 149 145 146 153 157 158 163 163 158 149 143 139 141 139 137 137 135 132
245 251 239 259 265 268 269 282 284 275 278 287 295 287 277 263 139 130 130 117 107 102 107 126 147 156 150 144 140 142 147 148 146 149 150 145 141 139 137 135 136 139 136
238 235 249 261 259 268 269 277 282 281 285 283 281 270 235 159 130 113 113 115 112 109 108 119 140 146 147 147 148 147 146 143 141 140 142 138 134 135 138 135 135 135 131
226 223 242 247 244 254 252 258 269 268 273 273 261 232 181 156 140 127 124 122 117 111 106 110 132 141 144 142 143 143 143 143 141 139 139 134 131 133 135 132 133 131 130